Wetbulb
45.38 45.20 46.22 47.47 52.58 60.04 59.54 59.55 60.71 61.56 61.30 61.25 60.53 59.51 59.01 58.77 58.33 57.63 57.11 56.89 56.27 56.07 56.23 56.21 55.97 56.69 56.57 56.31 55.83 54.95 54.27 53.54 50.69 52.83 54.46 55.54 55.14 56.09 56.15 54.81 52.25 49.87 47.65
43.65 43.54 45.29 47.25 57.69 58.92 59.13 59.47 61.29 60.76 60.67 60.20 59.00 58.80 58.35 57.95 57.89 57.15 56.15 56.21 55.55 55.39 55.65 55.83 55.67 56.11 55.99 56.15 55.75 54.78 54.46 53.77 52.05 51.54 52.89 53.91 54.41 55.49 55.25 53.84 50.24 46.93 45.89
41.43 41.45 44.06 46.22 58.26 58.36 58.81 59.02 60.41 59.86 60.18 59.92 58.85 58.56 58.01 57.27 56.85 56.87 56.39 56.05 55.79 55.77 55.67 55.67 55.56 55.57 55.15 55.19 54.90 54.45 54.41 54.14 53.17 51.52 51.44 52.83 53.53 54.75 51.49 47.23 43.01 42.00 42.55
39.85 40.12 42.43 44.75 56.77 58.04 58.73 57.95 59.42 59.42 58.85 58.69 58.63 58.25 57.27 56.63 56.45 56.19 55.87 55.65 55.79 55.71 55.77 55.77 55.65 55.50 55.18 54.90 54.31 54.25 53.46 53.32 52.65 51.71 51.22 51.36 51.87 52.64 52.54 47.34 43.40 41.14 39.68
38.87 39.76 41.61 45.22 55.61 57.64 58.11 58.38 58.75 58.63 57.79 58.09 58.59 57.44 56.75 56.17 55.81 55.31 55.17 54.65 54.53 54.32 54.89 55.51 55.73 54.50 50.49 53.10 54.88 54.44 53.55 52.64 52.31 51.46 50.14 49.84 49.68 49.61 49.98 49.73 45.39 38.86 36.47
37.98 38.80 41.08 48.04 55.50 56.73 57.35 57.49 57.59 57.05 56.85 56.98 56.71 56.31 55.51 55.85 46.42 46.24 51.72 54.01 53.71 53.37 52.87 53.17 53.31 48.88 47.98 45.33 46.24 46.96 51.91 52.77 51.42 50.42 49.30 47.79 48.81 49.33 49.13 48.63 39.58 37.24 35.66
36.97 37.89 38.74 40.74 56.27 56.85 57.12 56.96 56.91 56.29 56.25 55.45 55.99 55.79 55.01 55.34 44.06 44.61 45.33 53.62 52.95 52.74 52.48 51.99 51.02 50.84 48.68 49.42 38.53 37.59 36.67 37.26 40.45 50.94 48.96 47.97 47.29 48.35 48.41 46.22 41.49 38.03 35.53
34.51 35.59 36.87 37.89 45.10 56.41 56.37 56.09 56.33 56.23 55.57 54.92 54.84 55.24 53.95 47.23 42.61 42.97 42.97 52.79 52.08 52.07 52.19 52.23 51.50 49.86 49.33 43.75 38.92 34.60 33.35 33.49 34.68 36.52 38.00 33.73 34.09 36.05 38.16 37.80 35.69 29.47 29.79
31.81 32.96 34.75 36.28 38.71 53.97 55.35 55.35 55.81 55.75 55.02 50.70 50.95 48.58 44.74 40.84 38.56 42.07 45.69 51.97 50.88 48.19 45.75 43.28 51.05 50.32 41.49 41.01 36.69 32.21 30.59 30.43 33.29 33.53 33.41 33.04 33.11 33.60 34.56 35.26 31.96 32.09 27.44
30.70 32.00 33.95 35.35 35.67 38.01 50.97 54.77 54.32 48.48 41.85 39.66 35.73 35.52 36.23 37.89 36.93 39.88 46.31 49.86 41.19 36.85 34.50 34.48 34.43 42.00 38.24 37.62 37.04 33.95 29.83 27.90 27.62 27.57 27.10 27.34 28.07 28.70 28.81 29.91 33.40 31.84 26.54
30.93 31.01 32.11 33.29 34.55 34.37 38.09 45.01 42.17 37.60 34.72 32.25 30.93 31.17 31.98 33.20 35.46 39.22 41.70 44.36 37.11 33.17 32.27 31.87 32.64 34.83 36.11 36.34 36.95 35.07 30.33 27.18 26.33 25.70 25.07 24.75 24.86 24.79 25.12 26.20 27.52 30.46 26.02
30.16 29.03 29.28 31.17 32.63 33.36 33.11 34.73 35.33 34.43 31.44 29.74 28.30 27.43 28.84 31.11 33.03 34.61 35.74 35.45 34.65 31.68 29.65 30.57 31.79 32.90 32.36 31.57 29.91 29.59 28.56 27.21 25.99 24.48 23.22 22.16 21.97 22.12 23.01 24.34 25.34 26.00 26.93
29.35 27.59 27.46 28.72 30.74 32.02 31.49 31.16 30.57 30.90 29.83 28.45 27.33 25.61 25.48 27.30 29.23 31.61 31.63 31.17 30.75 29.10 29.46 30.04 30.11 29.85 29.37 28.55 28.88 28.14 27.01 25.71 24.15 22.33 21.20 21.12 21.91 22.80 23.24 22.94 23.31 23.69 23.44
29.23 27.64 26.89 26.50 27.55 28.77 29.61 30.15 29.47 28.80 27.79 27.24 26.20 25.23 25.67 26.17 26.36 27.58 27.53 28.05 28.70 27.20 26.70 26.58 26.68 26.80 26.68 26.04 26.00 25.86 25.57 25.09 23.69 22.34 22.12 23.21 24.30 23.44 22.53 22.28 19.78 19.52 18.71
29.78 29.27 27.19 26.16 26.13 26.95 28.29 28.74 28.59 29.37 29.45 27.33 27.33 27.62 26.45 25.76 27.50 29.11 28.50 27.67 27.95 28.18 28.09 27.43 26.17 25.50 24.75 24.89 25.09 25.02 25.08 24.88 23.52 23.61 23.14 22.34 22.09 22.31 20.97 21.65 20.93 19.66 17.34
28.75 28.67 28.49 27.62 26.02 25.82 25.90 26.27 30.45 30.88 31.62 31.63 31.63 30.52 31.02 31.76 32.13 32.02 31.75 31.41 30.86 29.55 27.27 25.07 24.24 24.05 23.30 23.16 22.76 22.79 23.43 23.17 23.04 22.60 22.04 21.69 20.62 19.87 20.37 20.99 20.14 18.18 17.13
27.83 28.55 28.42 27.43 26.20 25.32 24.62 24.44 24.05 27.43 29.97 30.88 31.63 31.52 31.20 30.49 30.82 30.47 30.12 29.74 29.35 27.62 24.06 23.05 22.01 21.67 21.46 21.27 21.54 21.33 20.47 21.22 21.66 20.37 19.71 19.09 19.33 19.63 19.39 18.87 18.10 18.21 16.98
28.08 27.96 27.97 27.82 27.69 26.25 25.10 24.46 24.44 23.64 23.04 24.30 28.00 28.24 29.33 29.33 28.91 28.07 27.40 25.96 22.51 23.13 21.98 20.82 20.13 20.51 20.65 20.34 20.25 19.75 19.89 19.45 19.29 18.62 16.56 15.19 15.57 16.90 15.90 15.72 14.93 10.03 13.72
27.85 27.68 27.65 27.17 26.02 24.81 23.88 22.86 22.08 22.40 24.28 23.74 23.69 23.97 25.09 26.44 26.13 25.87 25.29 21.71 20.13 19.70 19.92 19.20 18.77 18.65 18.31 17.99 17.33 17.14 16.71 13.60 14.59 13.96 14.02 14.49 10.08 13.58 11.64 12.26 11.99 10.05 13.16
27.08 26.96 26.55 26.17 24.97 23.33 22.28 21.20 20.50 20.36 20.27 20.45 20.56 20.73 21.40 21.04 19.43 19.58 20.23 19.82 19.12 19.30 19.62 19.22 18.81 17.74 16.89 15.75 13.35 12.58 14.25 13.69 13.76 13.89 9.57 7.94 6.54 11.20 9.38 10.06 9.46 9.77 13.03
25.04 25.60 25.11 24.97 23.93 22.76 21.47 20.19 19.67 18.92 18.32 18.08 18.10 18.63 18.43 17.42 16.51 16.51 16.63 16.58 16.94 16.92 16.50 16.73 16.43 16.19 16.23 15.61 15.59 13.55 12.08 10.65 10.81 9.42 9.81 9.91 7.13 7.98 10.85 10.45 9.87 10.12 11.84
24.61 24.35 24.11 23.42 23.49 22.31 21.53 20.79 19.52 18.67 18.11 16.96 16.57 16.31 15.96 14.96 14.14 13.50 13.00 12.75 13.72 14.35 14.38 13.82 13.95 13.85 13.45 12.35 11.66 11.22 9.16 6.44 6.71 5.67 7.27 7.89 9.29 8.35 6.29 5.96 7.14 7.13 8.51
22.86 21.88 21.22 20.83 20.86 20.34 20.30 19.59 18.41 17.59 16.28 15.48 15.24 14.55 14.01 12.91 12.20 11.29 9.75 8.80 9.45 8.81 8.76 8.22 8.87 9.95 9.45 6.66 6.30 5.88 6.10 4.08 2.66 2.14 3.99 4.08 6.26 5.56 1.25 2.74 2.44 1.93 0.67
21.00 19.60 20.28 17.67 17.68 17.34 16.87 16.48 16.58 15.61 15.17 13.89 12.82 12.15 11.28 10.24 9.35 8.44 8.47 9.41 9.18 7.21 5.92 6.20 5.79 5.16 4.60 2.18 2.00 3.55 3.43 -1.01 1.13 1.19 -0.85 -0.50 2.40 3.71 1.41 1.81 3.17 -0.92 0.14
17.95 17.40 18.41 16.96 15.97 14.60 15.13 14.86 14.03 12.79 12.56 10.86 10.93 11.13 9.90 8.92 8.40 6.44 5.72 6.24 4.90 3.97 3.84 3.60 4.20 1.14 -1.09 -2.19 -1.80 -1.18 -3.24 -4.04 -4.18 -5.30 -1.70 -0.98 -3.97 -2.50 -1.94 -0.82 -3.45 -0.11 -1.95
17.89 17.26 17.40 17.06 15.49 13.70 12.30 11.76 11.03 8.75 8.43 8.80 8.06 6.28 5.70 5.83 4.08 1.05 1.68 2.55 2.54 1.48 1.11 2.80 3.25 -0.46 -1.05 -0.88 -0.37 -3.30 -5.42 -5.26 -5.83 -6.06 -7.66 -1.08 -2.08 -2.88 -2.95 -4.14 -3.12 -4.09 -0.87
MSLP
1008.05 1007.36 1006.63 1005.53 1004.52 1003.40 1003.10 1003.25 1003.47 1003.97 1004.41 1005.00 1005.33 1006.55 1007.33 1008.06 1008.80 1009.40 1009.95 1010.44 1010.87 1011.23 1011.67 1011.93 1012.41 1012.94 1013.26 1013.80 1014.38 1014.92 1015.55 1016.29 1016.87 1016.99 1016.88 1016.87 1017.30 1017.83 1018.66 1019.34 1020.13 1020.75 1021.26
1008.41 1007.42 1006.28 1005.00 1002.84 1002.36 1002.59 1002.71 1002.99 1003.39 1003.93 1004.37 1005.11 1005.99 1006.93 1007.68 1008.34 1008.88 1009.47 1009.87 1010.41 1010.84 1011.06 1011.47 1011.91 1012.53 1012.91 1013.47 1014.00 1014.67 1015.46 1016.16 1016.48 1016.78 1016.70 1017.19 1017.40 1017.93 1018.41 1019.31 1020.36 1021.27 1021.56
1008.42 1007.48 1006.17 1004.73 1002.90 1002.20 1002.17 1002.28 1002.49 1002.91 1003.47 1004.07 1004.65 1005.67 1006.53 1007.24 1007.87 1008.48 1008.99 1009.41 1009.89 1010.23 1010.55 1011.04 1011.50 1011.94 1012.47 1013.10 1013.68 1014.35 1015.02 1015.63 1016.37 1016.66 1017.10 1017.27 1017.65 1017.87 1019.09 1020.31 1020.84 1021.80 1022.30
1008.27 1007.50 1006.18 1004.74 1002.99 1002.30 1002.16 1001.90 1002.16 1002.32 1003.17 1003.55 1004.37 1005.31 1006.31 1006.98 1007.58 1008.11 1008.56 1008.96 1009.39 1009.78 1010.09 1010.53 1010.94 1011.37 1011.82 1012.49 1013.23 1013.90 1014.72 1015.30 1015.89 1016.66 1017.19 1017.40 1017.68 1018.19 1018.69 1019.89 1021.38 1022.34 1022.82
1008.00 1007.07 1005.83 1004.24 1002.72 1002.06 1001.85 1001.85 1001.94 1002.12 1002.37 1003.03 1003.89 1005.11 1006.03 1006.75 1007.30 1007.73 1008.30 1008.73 1009.06 1009.49 1009.83 1010.21 1010.66 1011.01 1011.39 1011.92 1012.65 1013.48 1014.35 1014.90 1015.45 1016.29 1016.98 1017.56 1017.77 1018.28 1018.75 1019.50 1020.77 1022.02 1023.08
1007.80 1006.80 1005.43 1003.48 1002.11 1001.57 1001.58 1001.61 1001.76 1001.70 1001.89 1002.84 1003.98 1005.03 1005.90 1006.46 1007.14 1007.59 1008.00 1008.44 1008.74 1009.29 1009.76 1010.06 1010.38 1010.78 1011.24 1011.71 1012.27 1012.76 1013.26 1014.23 1014.76 1015.58 1016.43 1017.26 1017.83 1018.09 1018.64 1019.29 1020.58 1021.96 1023.02
1008.52 1007.09 1005.54 1003.84 1001.33 1001.14 1001.05 1001.31 1001.53 1001.66 1001.78 1003.00 1004.15 1004.99 1005.77 1006.31 1007.04 1007.59 1007.99 1008.35 1008.67 1009.11 1009.63 1010.07 1010.47 1010.75 1011.36 1012.08 1012.82 1013.29 1013.92 1014.27 1014.52 1015.09 1016.06 1016.88 1017.41 1017.70 1018.21 1019.09 1019.85 1020.79 1021.73
1008.92 1007.62 1006.05 1004.49 1002.46 1000.69 1000.68 1000.80 1001.36 1001.15 1002.41 1003.31 1004.44 1005.04 1005.86 1006.81 1007.16 1007.75 1008.10 1008.43 1008.72 1009.21 1009.69 1009.99 1010.38 1010.96 1011.46 1012.32 1013.45 1014.37 1015.14 1015.60 1015.79 1015.90 1016.36 1017.40 1017.82 1018.19 1018.42 1019.00 1019.62 1021.03 1022.22
1009.41 1008.20 1006.59 1005.12 1003.32 1000.83 1000.41 1000.65 1001.13 1001.73 1002.50 1004.12 1004.96 1005.62 1006.43 1007.41 1007.56 1007.68 1008.08 1008.41 1008.84 1009.57 1010.13 1010.48 1010.52 1010.96 1011.60 1012.43 1013.56 1014.74 1015.92 1016.84 1017.27 1017.32 1017.83 1018.39 1018.70 1018.89 1018.82 1019.20 1020.23 1021.23 1022.44
1010.56 1009.11 1007.39 1005.81 1004.34 1002.66 1000.95 1000.81 1001.45 1002.45 1003.76 1005.11 1006.24 1007.19 1007.74 1007.87 1007.96 1007.89 1008.04 1008.50 1009.36 1010.36 1011.17 1011.36 1011.29 1011.11 1011.53 1012.23 1013.34 1014.46 1016.15 1017.41 1017.96 1018.53 1018.98 1019.39 1019.53 1019.71 1019.67 1019.78 1020.03 1020.75 1021.93
1011.23 1009.64 1008.09 1006.59 1005.12 1004.15 1002.80 1002.04 1002.53 1003.70 1005.01 1006.35 1007.12 1008.51 1008.82 1008.78 1008.50 1008.13 1008.17 1008.77 1009.78 1010.97 1011.89 1012.33 1012.42 1011.81 1012.27 1012.77 1013.20 1014.25 1015.62 1017.22 1018.40 1018.90 1019.47 1020.00 1020.39 1020.67 1020.98 1021.01 1020.84 1020.87 1021.69
1011.28 1010.39 1009.28 1007.69 1006.27 1005.74 1004.80 1004.35 1004.38 1004.94 1005.80 1007.16 1007.97 1009.23 1009.87 1009.93 1009.67 1009.14 1008.92 1009.54 1010.38 1011.14 1012.72 1013.32 1013.56 1013.28 1013.36 1013.91 1014.68 1015.69 1016.63 1017.48 1018.39 1019.25 1020.09 1020.93 1021.32 1021.71 1022.02 1022.08 1022.20 1022.15 1022.14
1012.29 1011.66 1010.84 1009.43 1007.65 1007.20 1006.66 1006.25 1006.25 1006.65 1007.42 1008.45 1009.11 1010.10 1010.62 1011.07 1011.43 1011.22 1010.80 1011.11 1011.94 1012.42 1013.59 1014.49 1014.76 1014.72 1015.03 1015.70 1016.38 1016.86 1017.40 1018.10 1018.95 1019.89 1020.80 1021.51 1022.15 1022.54 1022.59 1022.66 1022.83 1023.02 1023.14
1012.98 1012.93 1012.31 1011.38 1009.95 1008.61 1008.15 1008.31 1007.92 1008.58 1009.10 1010.00 1010.62 1011.00 1011.60 1012.03 1012.41 1012.46 1012.76 1013.01 1013.20 1013.84 1015.06 1015.57 1015.63 1015.80 1016.27 1016.96 1017.61 1018.14 1018.66 1019.37 1019.86 1020.55 1021.36 1022.09 1022.64 1022.84 1023.16 1023.46 1023.67 1023.84 1024.03
1014.48 1014.25 1013.67 1013.13 1012.29 1011.24 1010.49 1010.47 1010.39 1010.96 1010.35 1010.81 1011.73 1012.78 1012.63 1012.44 1013.07 1013.10 1013.50 1013.88 1014.54 1014.17 1015.39 1015.69 1015.95 1017.04 1016.89 1018.27 1018.93 1019.32 1019.76 1020.52 1020.96 1021.72 1022.16 1022.64 1022.99 1023.13 1023.62 1023.87 1023.94 1024.16 1024.75
1015.40 1015.30 1015.05 1014.73 1014.35 1013.89 1013.10 1012.87 1012.30 1012.58 1012.72 1012.85 1013.41 1012.78 1013.38 1013.36 1013.77 1013.93 1014.35 1014.90 1015.72 1014.68 1016.19 1016.22 1017.40 1018.51 1018.72 1019.58 1020.02 1020.37 1020.87 1021.47 1022.05 1022.47 1022.84 1023.16 1023.40 1023.68 1023.99 1024.25 1024.49 1024.92 1025.34
1016.76 1016.47 1016.19 1015.96 1015.86 1015.55 1015.24 1014.76 1015.20 1015.76 1015.18 1014.99 1015.31 1016.07 1015.76 1014.67 1014.65 1015.36 1015.79 1016.14 1016.69 1016.87 1016.85 1018.06 1019.09 1019.78 1020.36 1020.83 1021.23 1021.57 1022.05 1022.53 1022.99 1023.37 1023.65 1023.95 1024.09 1024.35 1024.86 1025.09 1025.40 1025.79 1026.19
1017.58 1017.31 1017.18 1017.06 1017.14 1017.20 1017.46 1017.10 1017.05 1017.22 1017.02 1017.56 1017.49 1017.19 1016.59 1016.39 1016.46 1017.22 1017.87 1017.93 1018.58 1018.95 1018.94 1019.52 1020.25 1020.84 1021.36 1021.86 1022.38 1022.80 1023.14 1023.59 1024.11 1024.38 1024.61 1024.87 1025.01 1025.33 1025.74 1026.12 1026.42 1026.63 1026.71
1018.43 1018.22 1018.26 1018.33 1018.25 1018.76 1018.73 1018.57 1018.41 1018.58 1018.68 1019.08 1019.13 1019.41 1019.23 1018.79 1018.89 1019.07 1019.31 1019.44 1019.68 1020.21 1021.03 1021.26 1021.41 1021.88 1022.34 1022.90 1023.70 1024.04 1024.23 1024.76 1025.11 1025.38 1025.77 1026.13 1026.32 1026.35 1026.63 1026.82 1027.19 1027.32 1027.26
1019.67 1019.56 1019.42 1019.64 1019.77 1019.79 1019.66 1019.60 1019.80 1020.19 1020.32 1020.63 1020.60 1020.82 1020.93 1020.26 1020.13 1020.74 1021.31 1021.26 1021.10 1021.81 1022.23 1022.39 1022.62 1022.94 1023.50 1023.96 1024.59 1025.05 1025.46 1025.60 1025.88 1026.48 1026.84 1027.00 1027.28 1027.20 1027.62 1027.80 1027.78 1027.97 1028.00
1020.71 1020.67 1020.65 1020.61 1020.61 1020.72 1020.91 1021.01 1021.34 1021.78 1021.83 1021.69 1021.76 1022.05 1022.01 1021.91 1022.32 1022.58 1022.89 1022.99 1023.05 1023.47 1023.96 1023.98 1023.81 1024.02 1024.44 1024.85 1025.71 1026.30 1026.62 1026.89 1027.17 1027.59 1027.46 1027.72 1028.14 1028.11 1028.07 1028.54 1028.75 1028.78 1028.79
1021.82 1021.73 1021.70 1021.70 1021.57 1021.58 1021.87 1022.07 1022.40 1022.72 1022.96 1023.10 1023.44 1023.46 1023.35 1023.51 1023.89 1024.22 1024.53 1024.77 1024.97 1025.08 1025.17 1025.20 1025.28 1025.58 1026.08 1026.34 1026.71 1027.21 1027.90 1028.09 1028.03 1028.33 1028.43 1028.60 1028.76 1028.75 1028.84 1029.04 1029.45 1029.62 1029.63
1022.39 1022.40 1022.52 1022.67 1022.58 1022.50 1022.69 1023.09 1023.40 1023.76 1024.15 1024.38 1024.34 1024.62 1024.95 1025.14 1025.52 1025.85 1026.20 1026.45 1026.58 1026.61 1026.73 1026.99 1027.12 1027.15 1027.33 1027.78 1028.08 1028.51 1028.94 1029.39 1029.50 1029.12 1029.16 1029.57 1029.81 1029.80 1029.78 1030.09 1029.98 1030.28 1030.43
1023.30 1023.35 1023.50 1023.59 1023.64 1023.85 1023.91 1024.01 1024.32 1024.48 1024.87 1025.21 1025.60 1025.93 1026.34 1026.71 1026.85 1027.12 1027.30 1027.38 1027.52 1027.72 1027.99 1028.20 1028.25 1028.55 1028.76 1029.02 1029.30 1029.43 1029.45 1029.81 1029.77 1029.94 1030.14 1030.50 1030.51 1030.08 1030.25 1030.62 1030.42 1030.61 1030.81
1024.23 1024.37 1024.48 1024.57 1024.61 1024.73 1025.02 1025.08 1025.29 1025.50 1025.86 1026.27 1026.75 1027.06 1027.28 1027.64 1027.92 1028.04 1028.34 1028.50 1028.80 1028.97 1028.97 1029.18 1029.48 1029.61 1029.87 1030.05 1030.08 1030.30 1030.38 1030.52 1030.59 1030.71 1030.62 1030.48 1030.82 1030.96 1030.84 1030.95 1031.01 1031.08 1031.02
1025.36 1025.41 1025.45 1025.55 1025.55 1025.59 1025.83 1026.14 1026.36 1026.55 1026.96 1027.30 1027.53 1027.92 1028.35 1028.59 1028.77 1029.20 1029.29 1029.36 1029.40 1029.53 1029.72 1029.84 1030.09 1030.63 1030.79 1030.97 1030.81 1030.95 1031.04 1031.12 1031.16 1031.44 1031.31 1031.20 1031.13 1031.29 1031.32 1031.54 1031.61 1031.65 1031.74
Wind_Speed
14 15 16 14 18 14 7 6 7 11 12 14 14 12 11 12 12 11 10 10 11 10 10 11 12 9 8 7 6 5 4 3 3 4 3 2 3 6 6 8 6 7 6
15 16 17 16 14 13 8 7 8 12 12 12 12 11 11 11 11 11 10 10 11 11 11 11 12 10 12 10 8 10 7 5 3 7 2 1 3 4 7 11 7 7 7
16 16 17 17 9 5 6 6 9 11 12 13 12 12 11 12 11 11 11 11 12 12 11 11 12 13 12 10 11 8 6 5 4 1 1 1 3 6 6 6 7 7 7
17 17 16 16 13 6 6 6 10 13 12 12 11 11 10 10 10 10 9 9 10 10 11 13 11 14 14 13 12 12 8 8 5 4 2 2 3 2 5 4 4 2 4
17 17 17 16 15 7 5 6 9 13 12 11 11 10 9 9 8 10 9 9 9 7 8 9 11 13 14 13 10 12 10 8 8 7 5 2 2 2 4 3 3 3 2
18 17 17 16 14 9 8 8 8 9 11 12 11 10 9 6 11 12 10 9 8 8 6 5 5 10 12 14 14 14 15 14 11 7 4 4 5 4 4 4 4 4 3
17 17 16 20 11 9 11 12 10 11 12 11 11 10 9 7 13 12 11 7 7 6 6 6 5 4 8 7 12 15 14 13 4 7 6 5 5 5 5 5 5 3 3
16 16 15 17 16 8 11 13 11 11 12 11 9 9 7 4 12 12 11 7 6 6 6 7 7 6 8 11 10 10 10 10 7 5 6 5 4 4 3 2 3 7 6
17 17 15 15 15 7 8 11 10 12 10 7 6 9 9 5 5 13 9 7 6 5 6 5 4 7 12 19 12 12 10 11 17 23 22 20 18 14 6 5 4 4 3
17 17 14 12 13 13 3 11 5 11 12 9 12 11 10 6 8 6 7 5 7 6 6 6 12 2 17 19 13 13 11 8 8 8 8 12 13 14 16 7 3 4 4
14 16 15 12 12 14 10 7 12 13 14 11 14 11 11 10 9 5 5 7 8 7 5 5 6 15 13 12 11 9 8 13 11 9 8 8 8 9 8 7 7 4 4
15 17 17 15 9 11 13 11 11 12 14 12 12 11 9 12 17 18 19 16 13 12 9 7 10 21 24 24 18 26 24 14 9 9 8 7 7 7 7 8 9 9 8
14 16 16 17 14 11 14 13 11 11 10 9 9 9 9 8 10 23 26 26 22 16 11 19 25 27 28 22 23 21 13 9 9 9 8 8 6 5 6 8 9 10 11
14 14 14 15 18 16 13 11 11 10 11 10 9 9 8 8 7 6 9 13 23 17 15 13 16 18 18 14 12 12 9 8 9 9 8 6 5 5 5 5 6 6 7
11 11 12 11 14 16 18 13 13 13 11 11 9 7 7 10 8 12 12 9 9 12 11 10 12 9 12 10 10 10 9 8 9 7 7 7 6 5 3 1 2 5 6
10 9 8 8 10 10 12 15 32 28 28 26 19 14 11 18 22 24 23 22 19 20 10 12 11 9 11 9 9 9 9 9 7 7 6 6 5 4 5 4 5 5 6
10 9 7 10 9 9 9 11 12 18 30 27 25 23 24 26 29 28 27 25 21 16 12 11 10 9 9 9 8 8 8 7 8 6 6 5 4 5 6 5 4 4 3
9 13 8 8 8 8 8 8 8 8 10 11 22 21 25 26 25 24 22 18 13 13 11 10 10 8 8 8 8 8 7 7 6 5 5 5 5 5 5 5 4 3 2
8 7 7 8 9 9 8 9 10 9 8 8 8 12 16 26 26 25 21 11 11 11 9 9 9 9 8 8 7 7 7 5 6 6 5 6 4 5 4 4 4 5 6
8 11 10 7 7 7 8 9 9 9 9 8 8 8 7 10 11 11 10 9 10 9 9 9 9 8 7 7 6 5 7 7 7 6 5 4 3 4 4 4 4 4 4
6 6 8 7 7 7 7 8 7 7 8 8 9 10 13 10 9 9 9 9 9 9 8 8 8 8 7 7 7 7 7 5 5 4 4 5 4 4 5 5 4 3 4
4 5 6 6 6 7 7 7 7 7 8 8 8 9 13 9 9 9 9 9 8 8 7 8 8 8 8 7 6 7 7 6 5 5 4 5 5 5 4 3 4 4 3
6 7 7 7 7 8 7 7 7 7 7 7 8 8 8 8 8 8 7 7 7 7 7 7 7 8 8 8 8 6 7 6 3 3 5 4 5 4 3 3 2 3 3
5 5 6 4 5 6 6 7 7 9 8 7 7 7 8 7 7 8 7 7 7 7 7 7 8 8 7 7 6 6 6 5 5 5 5 3 3 3 3 3 3 3 3
5 5 5 5 5 5 6 7 7 7 7 6 6 7 6 6 7 6 5 6 6 6 7 6 6 8 10 10 9 9 8 9 7 6 4 4 4 4 3 3 3 3 4
7 7 7 6 6 5 6 6 6 5 6 5 5 5 5 5 5 4 4 5 5 5 5 6 8 9 8 6 8 8 8 8 7 7 4 3 4 3 4 4 5 3 3
Wind_Direction
328 318 305 291 275 234 203 198 187 185 178 172 161 165 168 176 179 180 187 186 194 190 191 187 190 175 173 152 155 149 138 115 177 207 187 150 113 133 87 94 87 84 75
316 314 305 302 264 204 197 197 187 186 164 163 159 162 174 180 179 179 182 181 191 195 185 184 185 181 175 164 162 166 171 151 118 194 131 135 137 132 116 108 91 80 78
321 316 307 303 273 212 202 196 180 166 157 159 156 168 174 179 179 182 188 187 193 193 184 181 183 176 176 177 176 175 180 159 165 98 94 143 105 130 94 85 85 74 86
323 312 301 292 264 222 217 173 181 164 160 155 158 162 170 171 179 178 181 184 187 192 190 195 183 186 181 178 181 184 175 177 155 142 145 106 130 94 117 137 121 115 113
319 311 298 283 264 221 212 180 186 178 161 141 146 151 160 167 178 176 180 182 176 170 188 189 197 193 193 186 183 185 176 175 175 167 149 153 133 123 166 152 118 122 114
322 313 307 287 251 214 202 180 184 161 142 132 134 147 155 169 168 173 174 179 174 177 177 167 169 181 182 180 184 182 183 183 171 162 150 164 177 163 154 159 127 149 177
321 318 323 325 224 209 191 178 178 166 133 133 139 149 157 169 166 167 161 164 161 165 167 160 151 159 163 150 80 78 66 61 129 158 155 172 158 177 161 172 158 148 139
330 324 329 326 316 183 185 169 168 145 152 142 145 148 133 82 165 163 163 155 148 157 167 166 156 153 139 130 113 84 64 48 32 59 84 88 79 75 87 67 107 102 87
339 331 331 332 325 270 179 162 156 142 128 113 94 105 112 83 46 167 160 157 132 92 79 49 166 162 143 133 120 111 95 86 76 81 82 79 74 69 77 112 111 126 99
341 332 329 337 345 346 272 151 145 102 96 98 80 65 61 71 31 162 165 125 106 97 59 36 17 340 152 147 141 141 128 128 115 94 74 63 56 53 47 41 125 134 125
345 347 344 347 10 2 2 74 109 103 99 90 84 64 55 32 22 90 141 123 124 99 73 53 37 70 88 83 119 134 126 123 106 95 83 71 61 54 45 38 35 85 109
9 2 356 355 18 27 25 45 69 96 99 91 89 75 54 48 44 59 79 92 102 102 88 74 72 83 88 91 89 109 111 106 103 94 86 73 73 68 61 60 58 63 61
16 14 7 7 20 26 44 41 52 62 76 84 82 84 73 57 59 67 79 87 86 90 91 94 89 85 85 82 93 95 93 97 100 94 94 92 88 93 98 86 79 79 74
25 18 15 18 30 34 45 38 48 45 67 72 73 73 80 76 69 69 75 83 89 88 91 88 86 84 78 81 75 71 75 81 95 103 104 97 102 103 92 88 93 92 83
29 26 27 27 31 46 49 47 56 55 59 72 64 69 79 88 79 93 96 92 92 102 94 92 79 70 80 80 78 79 82 85 90 93 102 113 111 106 93 88 77 81 89
32 29 29 36 35 40 55 58 50 55 63 67 72 78 76 81 86 90 89 92 94 86 94 84 82 78 81 85 88 90 87 93 98 104 106 108 103 89 91 77 80 86 92
35 30 41 47 40 40 40 58 67 54 56 57 65 75 79 83 77 78 78 76 78 87 83 78 82 81 84 84 82 82 85 79 84 81 85 83 87 86 77 77 76 86 88
33 38 38 40 54 59 53 56 64 65 70 62 53 62 65 71 76 77 80 80 71 61 69 83 83 79 78 76 75 77 76 70 67 70 67 64 64 81 81 73 64 78 59
30 36 42 48 51 54 58 57 53 48 58 65 65 52 57 73 75 73 71 72 80 77 74 73 75 78 78 80 76 74 78 75 72 64 58 71 59 81 67 65 69 63 65
35 37 47 54 61 55 52 56 56 56 60 57 57 56 52 61 61 58 58 66 70 71 75 80 81 81 79 77 74 71 75 67 65 66 61 61 57 85 84 72 67 68 58
41 40 43 52 59 67 68 70 69 68 69 68 63 57 59 68 66 62 59 53 58 61 60 64 66 66 71 75 73 68 68 66 66 61 66 70 50 67 64 58 50 42 59
49 61 61 64 66 71 76 76 74 73 69 71 70 59 58 61 63 63 57 53 50 52 53 61 62 60 55 56 67 72 67 57 44 36 50 58 57 47 60 72 67 69 59
48 57 56 55 58 62 70 72 75 74 73 68 67 66 62 64 65 64 62 57 56 55 49 52 59 62 60 59 55 57 69 50 32 44 54 56 55 54 55 52 83 60 68
48 52 64 61 66 69 71 76 75 73 76 73 72 73 71 68 70 67 63 61 64 60 58 63 62 66 68 62 54 53 60 43 40 45 54 74 76 64 63 64 62 67 62
39 48 57 57 62 68 68 69 71 71 71 72 77 80 76 73 68 62 64 72 70 64 61 71 76 72 68 69 66 58 44 44 44 32 31 45 53 39 60 63 46 29 38
42 45 49 51 58 63 66 68 69 69 71 68 71 75 83 78 70 67 71 79 76 63 62 63 77 81 80 74 74 61 48 37 29 23 25 39 67 49 59 63 47 39 33